Location: Arbon
(43.0005°N, 0.7472°E)
Time: 01:50:04
(UTC+00:00)

SL-08 R/B - Pass Details

Date: 07 August 2020
Orbit: 673 x 740 km, 98.4° (Epoch: 19 September)

Event Time Altitude Azimuth Distance (km) Brightness Sun altitude
Exits shadow 02:43:59 20° 162° (SSE) 1,666 5.0 -20.1°
Maximum altitude 02:47:28 85° 75° (ENE) 749 3.4 -19.7°
Drops below altitude 10° 02:52:27 10° 348° (NNW) 2,259 6.4 -19.1°
Sets 02:54:45 0° 348° (NNW) 3,184 7.2 -18.8°
